Midland Airpark, TX
on Monday, July 17, 2017

Monday
Previous Day Next Day
Daily Summary
 ActualAverage (KMAF)Record (KMAF)
Temperature
Mean Temperature - -  
Max Temperature 98 °F 94 °F 108 °F (1989)
Min Temperature 72 °F 70 °F 60 °F (1936)
Cooling Degree Days 20    
Growing Degree Days34 (Base - )  
Moisture
Dew Point 59 °F   
Average Humidity 44    
Maximum Humidity 65    
Minimum Humidity 25    
Precipitation
Precipitation 0.00 in - - ()
Wind
Wind Speed 3 mph   
Max Wind Speed 15 mph   
Max Gust Speed 23 mph   
Visibility 10 miles   
Events Rain   
Averages and records for this station are not official NWS values.
Key: T is trace of precipitation, MM is missing value
Source: NWS Daily Summary
Seasonal Weather Averages





Time(CDT)TemperatureDew PointHumidity Pressure Visibility Wind DirectionWind SpeedGust SpeedPrecipitationEvents Conditions
12:15 AM 80.1 °F 57.6 °F 46% 30.05 in 10.0 miles Calm Calm - N/A   Clear
12:35 AM 80.4 °F 57.6 °F 45% 30.05 in 10.0 miles SW 3.5 mph - N/A   Clear
12:55 AM 80.1 °F 58.1 °F 47% 30.05 in 7.0 miles Calm Calm - N/A   Clear
1:15 AM 80.1 °F 58.3 °F 47% 30.05 in 10.0 miles Calm Calm - N/A   Clear
1:35 AM 80.4 °F 58.5 °F 47% 30.05 in 10.0 miles Calm Calm - N/A   Clear
1:55 AM 78.8 °F 58.5 °F 50% 30.05 in 10.0 miles Calm Calm - N/A   Clear
2:15 AM 77.2 °F 59.4 °F 54% 30.05 in 10.0 miles Calm Calm - N/A   Clear
2:35 AM 77.0 °F 59.9 °F 55% 30.05 in 10.0 miles Calm Calm - N/A   Clear
2:55 AM 77.4 °F 59.7 °F 54% 30.04 in 10.0 miles Calm Calm - N/A   Clear
3:15 AM 75.4 °F 60.3 °F 59% 30.04 in 10.0 miles Calm Calm - N/A   Clear
3:35 AM 74.5 °F 60.3 °F 61% 30.03 in 10.0 miles NW 3.5 mph - N/A   Clear
3:55 AM 73.4 °F 59.0 °F 61% 30.03 in 10.0 miles Calm Calm - N/A   Clear
4:15 AM 73.0 °F 58.6 °F 61% 30.04 in 10.0 miles Calm Calm - N/A   Clear
4:35 AM 73.6 °F 58.3 °F 59% 30.03 in 10.0 miles Calm Calm - N/A   Clear
4:55 AM 73.0 °F 58.6 °F 61% 30.03 in 10.0 miles Calm Calm - N/A   Clear
5:15 AM 73.0 °F 58.6 °F 61% 30.03 in 10.0 miles Calm Calm - N/A   Clear
5:35 AM 72.5 °F 58.6 °F 62% 30.03 in 10.0 miles Calm Calm - N/A   Clear
5:55 AM 72.7 °F 59.0 °F 62% 30.04 in 10.0 miles Calm Calm - N/A   Clear
6:15 AM 72.5 °F 59.2 °F 63% 30.04 in 10.0 miles Calm Calm - N/A   Clear
6:35 AM 72.1 °F 59.7 °F 65% 30.04 in 10.0 miles Calm Calm - N/A   Clear
6:55 AM 72.5 °F 59.4 °F 63% 30.05 in 10.0 miles Calm Calm - N/A   Clear
7:15 AM 72.5 °F 59.0 °F 62% 30.05 in 10.0 miles Calm Calm - N/A   Clear
7:35 AM 73.2 °F 59.5 °F 62% 30.05 in 10.0 miles Calm Calm - N/A   Clear
7:55 AM 74.8 °F 58.8 °F 57% 30.06 in 10.0 miles ENE 3.5 mph - N/A   Clear
8:15 AM 77.0 °F 59.2 °F 54% 30.07 in 10.0 miles ENE 4.6 mph - N/A   Clear
8:35 AM 78.8 °F 60.8 °F 54% 30.07 in 10.0 miles East 4.6 mph - N/A   Clear
8:55 AM 80.1 °F 62.6 °F 55% 30.08 in 10.0 miles East 5.8 mph - N/A   Clear
9:15 AM 81.0 °F 63.3 °F 55% 30.08 in 10.0 miles East 5.8 mph - N/A   Clear
9:35 AM 81.9 °F 63.7 °F 54% 30.09 in 10.0 miles ESE 3.5 mph - N/A   Clear
9:55 AM 83.3 °F 63.7 °F 51% 30.09 in 10.0 miles Calm Calm - N/A   Clear
10:15 AM 84.6 °F 63.9 °F 50% 30.08 in 10.0 miles Calm Calm - N/A   Clear
10:35 AM 86.0 °F 63.9 °F 47% 30.08 in 10.0 miles SSE 3.5 mph - N/A   Clear
10:55 AM 86.7 °F 63.5 °F 46% 30.08 in 10.0 miles SSE 3.5 mph - N/A   Clear
11:15 AM 87.8 °F 62.6 °F 43% 30.08 in 10.0 miles East 4.6 mph - N/A   Clear
11:35 AM 88.9 °F 62.8 °F 42% 30.08 in 10.0 miles East 4.6 mph - N/A   Clear
11:55 AM 90.0 °F 61.9 °F 39% 30.07 in 7.0 miles NNE 6.9 mph - N/A   Clear
12:15 PM 90.3 °F 61.2 °F 38% 30.07 in 10.0 miles Calm Calm - N/A   Clear
12:35 PM 91.2 °F 60.8 °F 36% 30.06 in 10.0 miles ENE 4.6 mph - N/A   Scattered Clouds
12:55 PM 91.6 °F 60.6 °F 35% 30.06 in 10.0 miles ENE 6.9 mph - N/A   Clear
1:15 PM 93.0 °F 58.6 °F 31% 30.05 in 10.0 miles SE 4.6 mph - N/A   Clear
1:35 PM 93.7 °F 59.0 °F 31% 30.04 in 10.0 miles ENE 3.5 mph - N/A   Clear
1:55 PM 94.1 °F 58.6 °F 30% 30.03 in 10.0 miles ESE 3.5 mph - N/A   Clear
2:15 PM 94.1 °F 57.7 °F 29% 30.02 in 10.0 miles NE 5.8 mph - N/A   Clear
2:35 PM 94.1 °F 57.2 °F 29% 30.01 in 10.0 miles East 5.8 mph - N/A   Clear
2:55 PM 94.1 °F 57.6 °F 29% 30.00 in 10.0 miles NNE 3.5 mph - N/A   Clear
3:15 PM 95.9 °F 56.7 °F 27% 30.00 in 10.0 miles Calm Calm - N/A   Clear
3:35 PM 96.3 °F 55.6 °F 25% 29.98 in 10.0 miles ESE 3.5 mph - N/A   Clear
3:55 PM 96.1 °F 54.5 °F 25% 29.97 in 10.0 miles NE 3.5 mph - N/A   Clear
4:15 PM 96.8 °F 55.6 °F 25% 29.96 in 10.0 miles SE 5.8 mph - N/A   Clear
4:35 PM 96.8 °F 55.2 °F 25% 29.96 in 10.0 miles NE 4.6 mph - N/A   Clear
4:55 PM 95.9 °F 55.8 °F 26% 29.95 in 10.0 miles Calm Calm - N/A   Scattered Clouds
5:15 PM 97.3 °F 55.8 °F 25% 29.95 in 10.0 miles ESE 9.2 mph - N/A   Scattered Clouds
5:35 PM 96.3 °F 56.5 °F 26% 29.95 in 10.0 miles South 9.2 mph - N/A   Scattered Clouds
5:55 PM 97.0 °F 55.4 °F 25% 29.96 in 10.0 miles East 10.4 mph - N/A   Mostly Cloudy
6:15 PM 94.6 °F 57.7 °F 29% 29.95 in 10.0 miles East 15.0 mph 18.4 mph N/A   Mostly Cloudy
6:35 PM 90.9 °F 59.7 °F 35% 29.95 in 10.0 miles ESE 3.5 mph 10.4 mph N/A Rain Light Rain
6:55 PM 95.2 °F 57.6 °F 28% 29.95 in 10.0 miles East 9.2 mph - N/A   Scattered Clouds
7:15 PM 95.5 °F 55.9 °F 26% 29.95 in 10.0 miles East 9.2 mph - N/A   Clear
7:35 PM 91.8 °F 58.6 °F 33% 29.96 in 10.0 miles SSE 15.0 mph 20.7 mph N/A   Scattered Clouds
7:55 PM 90.5 °F 58.5 °F 34% 29.97 in 10.0 miles SSE 12.7 mph - N/A   Mostly Cloudy
8:15 PM 89.4 °F 59.0 °F 36% 29.97 in 10.0 miles SE 12.7 mph 21.9 mph N/A   Scattered Clouds
8:35 PM 88.7 °F 59.4 °F 37% 29.97 in 10.0 miles SE 11.5 mph - N/A   Clear
8:55 PM 88.0 °F 59.7 °F 38% 29.97 in 10.0 miles SE 9.2 mph - N/A   Clear
9:15 PM 87.8 °F 59.4 °F 38% 29.98 in 10.0 miles SE 11.5 mph - N/A   Clear
9:35 PM 87.6 °F 58.5 °F 37% 29.99 in 10.0 miles SE 10.4 mph - N/A   Clear
9:55 PM 86.2 °F 60.8 °F 42% 30.00 in 10.0 miles SSE 15.0 mph 18.4 mph N/A   Clear
10:15 PM 84.4 °F 61.9 °F 47% 30.02 in 10.0 miles SSE 13.8 mph 23.0 mph N/A   Clear
10:35 PM 83.8 °F 61.3 °F 47% 30.03 in 10.0 miles South 9.2 mph - N/A   Clear
10:55 PM 83.3 °F 61.9 °F 48% 30.04 in 10.0 miles South 6.9 mph - N/A   Clear
11:15 PM 82.6 °F 62.6 °F 51% 30.05 in 10.0 miles South 5.8 mph - N/A   Clear
11:35 PM 82.4 °F 62.6 °F 51% 30.06 in 10.0 miles SSE 8.1 mph - N/A   Clear
11:55 PM 81.9 °F 63.3 °F 53% 30.07 in 10.0 miles SSE 9.2 mph 17.3 mph N/A   Clear
 Powered By Weather Underground